Wetterdaten: aktuell Montag, 31.08.2026 19:41
Datum Zeit Temp. A. Feuchte A. Luftdruck Regen Wind Richtung Richtung Taupunkt Windchill
31.08.2026 19:41 21,6 °C 48 % 1008,0 hPa 0,0 l/m² 3,7 km/h (1 Bft) O 95 ° 10,1 °C 21,6 °C
31.08.2026 19:39 21,7 °C 48 % 1007,9 hPa 0,0 l/m² 4,6 km/h (1 Bft) NO±45° 50 ° 10,2 °C 21,7 °C
31.08.2026 19:37 21,8 °C 47 % 1007,9 hPa 0,0 l/m² 0,4 km/h (0 Bft) O-NO±22.5° 60 ° 10,0 °C 21,8 °C
31.08.2026 19:35 21,8 °C 47 % 1007,9 hPa 0,0 l/m² 6,2 km/h (2 Bft) O±67.5° 85 ° 10,0 °C 21,8 °C
31.08.2026 19:33 21,9 °C 47 % 1007,9 hPa 0,0 l/m² 6,2 km/h (2 Bft) O±67.5° 85 ° 10,1 °C 21,9 °C
31.08.2026 19:31 22,0 °C 47 % 1007,9 hPa 0,0 l/m² 8,7 km/h (2 Bft) SO±45° 125 ° 10,2 °C 21,2 °C
31.08.2026 19:29 22,0 °C 47 % 1007,9 hPa 0,0 l/m² 4,4 km/h (1 Bft) SO±45° 130 ° 10,2 °C 22,0 °C
31.08.2026 19:27 22,0 °C 47 % 1007,9 hPa 0,0 l/m² 4,4 km/h (1 Bft) SO±45° 130 ° 10,2 °C 22,0 °C
31.08.2026 19:25 22,1 °C 46 % 1007,9 hPa 0,0 l/m² 2,2 km/h (1 Bft) SO±67.5° 130 ° 9,9 °C 22,1 °C
31.08.2026 19:23 22,1 °C 46 % 1007,9 hPa 0,0 l/m² 7,0 km/h (2 Bft) O-SO±67.5° 115 ° 9,9 °C 21,9 °C
31.08.2026 19:21 22,2 °C 46 % 1007,9 hPa 0,0 l/m² 7,0 km/h (2 Bft) O-SO±67.5° 115 ° 10,0 °C 22,0 °C
31.08.2026 19:19 22,2 °C 46 % 1007,9 hPa 0,0 l/m² 7,0 km/h (2 Bft) O-SO±67.5° 115 ° 10,0 °C 22,0 °C
31.08.2026 19:17 22,2 °C 46 % 1007,9 hPa 0,0 l/m² 7,7 km/h (2 Bft) SO±67.5° 145 ° 10,0 °C 21,8 °C
31.08.2026 19:15 22,3 °C 45 % 1007,9 hPa 0,0 l/m² 14,5 km/h (3 Bft) O±67.5° 100 ° 9,8 °C 20,1 °C
31.08.2026 19:13 22,3 °C 45 % 1007,9 hPa 0,0 l/m² 3,9 km/h (1 Bft) NO±45° 50 ° 9,8 °C 22,3 °C
31.08.2026 19:10 22,3 °C 45 % 1007,9 hPa 0,0 l/m² 3,9 km/h (1 Bft) NO±45° 50 ° 9,8 °C 22,3 °C
31.08.2026 19:08 22,5 °C 44 % 1007,9 hPa 0,0 l/m² 9,9 km/h (2 Bft) O±22.5° 80 ° 9,6 °C 21,4 °C
31.08.2026 19:06 22,6 °C 44 % 1007,9 hPa 0,0 l/m² 8,8 km/h (2 Bft) O±67.5° 80 ° 9,7 °C 21,8 °C
31.08.2026 19:04 22,6 °C 44 % 1007,9 hPa 0,0 l/m² 8,8 km/h (2 Bft) O±67.5° 80 ° 9,7 °C 21,8 °C
31.08.2026 19:02 22,6 °C 43 % 1007,9 hPa 0,0 l/m² 1,7 km/h (1 Bft) NO±67.5° 45 ° 9,4 °C 22,6 °C
31.08.2026 19:00 22,7 °C 42 % 1007,9 hPa 0,0 l/m² 6,8 km/h (2 Bft) S-SO±22.5° 150 ° 9,1 °C 22,6 °C
31.08.2026 18:58 22,7 °C 42 % 1007,9 hPa 0,0 l/m² 7,7 km/h (2 Bft) SO±45° 140 ° 9,1 °C 22,3 °C
31.08.2026 18:57 22,8 °C 42 % 1007,9 hPa 0,0 l/m² 7,7 km/h (2 Bft) SO±45° 140 ° 9,2 °C 22,4 °C
31.08.2026 18:55 22,8 °C 42 % 1007,9 hPa 0,0 l/m² 18,1 km/h (3 Bft) SO±67.5° 140 ° 9,2 °C 20,1 °C
31.08.2026 18:53 22,9 °C 41 % 1007,9 hPa 0,0 l/m² 6,0 km/h (2 Bft) O±67.5° 95 ° 8,9 °C 22,9 °C
31.08.2026 18:51 22,9 °C 41 % 1007,9 hPa 0,0 l/m² 6,0 km/h (2 Bft) O±67.5° 95 ° 8,9 °C 22,9 °C
31.08.2026 18:49 23,0 °C 40 % 1007,9 hPa 0,0 l/m² 7,4 km/h (2 Bft) O±22.5° 90 ° 8,7 °C 22,7 °C
31.08.2026 18:47 23,0 °C 40 % 1007,9 hPa 0,0 l/m² 7,9 km/h (2 Bft) O-SO±67.5° 120 ° 8,7 °C 22,5 °C
31.08.2026 18:45 23,0 °C 40 % 1007,9 hPa 0,0 l/m² 1,9 km/h (1 Bft) O±67.5° 100 ° 8,7 °C 23,0 °C
31.08.2026 18:43 23,0 °C 39 % 1007,9 hPa 0,0 l/m² 1,9 km/h (1 Bft) O±67.5° 100 ° 8,3 °C 23,0 °C
31.08.2026 18:41 22,9 °C 39 % 1007,9 hPa 0,0 l/m² 7,8 km/h (2 Bft) NW±67.5° 315 ° 8,2 °C 22,5 °C
31.08.2026 18:39 22,9 °C 39 % 1006,9 hPa 0,0 l/m² 10,8 km/h (2 Bft) N-NO±22.5° 20 ° 8,2 °C 21,6 °C
31.08.2026 18:37 23,0 °C 38 % 1006,9 hPa 0,0 l/m² 16,1 km/h (3 Bft) N±67.5° 5 ° 7,9 °C 20,7 °C
31.08.2026 18:35 23,0 °C 38 % 1006,9 hPa 0,0 l/m² 16,1 km/h (3 Bft) N±67.5° 5 ° 7,9 °C 20,7 °C
31.08.2026 18:33 23,0 °C 38 % 1006,9 hPa 0,0 l/m² 15,5 km/h (3 Bft) NO±22.5° 50 ° 7,9 °C 20,8 °C
31.08.2026 18:31 23,0 °C 38 % 1006,9 hPa 0,0 l/m² 15,5 km/h (3 Bft) NO±22.5° 50 ° 7,9 °C 20,8 °C
31.08.2026 18:28 23,1 °C 38 % 1006,9 hPa 0,0 l/m² 15,5 km/h (3 Bft) NO±22.5° 50 ° 8,0 °C 20,9 °C
31.08.2026 18:26 23,1 °C 38 % 1006,9 hPa 0,0 l/m² 7,4 km/h (2 Bft) N-NO±67.5° 20 ° 8,0 °C 22,8 °C
31.08.2026 18:24 23,1 °C 39 % 1006,9 hPa 0,0 l/m² 6,0 km/h (2 Bft) N-NO±67.5° 15 ° 8,4 °C 23,1 °C
31.08.2026 18:22 23,1 °C 39 % 1006,9 hPa 0,0 l/m² 7,9 km/h (2 Bft) N±45° 360 ° 8,4 °C 22,6 °C
31.08.2026 18:20 23,1 °C 39 % 1006,9 hPa 0,0 l/m² 7,9 km/h (2 Bft) N±45° 360 ° 8,4 °C 22,6 °C
_ Min-Zeit 05:49 14:22 00:47 - 00:01 - - 00:15 08:23
Minimum _ 18,0 °C 35 % 1005,0 hPa - 0,0 km/h (0 Bft) - - 7,7 °C 16,5 °C
_ Max-Zeit 15:13 06:50 11:42 04:02 12:09 - - 08:23 14:27
Maximum _ 24,5 °C 84 % 1008,0 hPa 1,8 l/m² 22,2 km/h
S-SO (4 Bft)
- - 15,8 °C 24,3 °C
Durchschnitt _ 20,9 °C 57 % 1006,7 hPa #9,4 l/m² 5,4 km/h (1 Bft) SO - 11,7 °C 20,4 °C